User: anonymous   Login
Location: Stanford
(52.2833°N, 2.4333°W)
Time: 19:59:51
(UTC+00:00)
Language:

Cosmos 1340 - Orbit

View from above orbital plane
View from above orbital plane
View from above satellite
View from above satellite

Ground track
Ground track

The orbit data is extracted from the following two-line orbital elements,

1 13067U 82013A   21111.75969380  .00001316  00000-0  57684-4 0  9999
2 13067  81.1835 294.3144 0004218 113.5828 246.5847 15.21308107140925
Epoch (UTC): 21 April 2021 18:13:57
Eccentricity: 0.0004218
inclination: 81.1835°
perigee height: 499 km
apogee height: 505 km
right ascension of ascending node: 294.3144°
argument of perigee: 113.5828°
revolutions per day: 15.21308107
mean anomaly at epoch: 246.5847°
orbit number at epoch: 14092

The dashed part of the orbit path shows where the satellite is in the earth's shadow,  

DLR